カタログに戻る

SL-3 R/B

運用中SSO
NORAD 18961·ROCKET BODY·🇷🇺 Russia

打ち上げ Mar 17, 1988 から Baikonur Cosmodrome

Loading…

次のパス (今後24時間)

TLE

最新Source: Space-Track

元期: Sep 14, 2026, 10:27 UTC

1 18961U 88021B   26257.43556220  .00000339  00000-0  25313-3 0  9995
2 18961  98.8796 310.0251 0053641 284.2189  85.9954 14.00840172968076

AllMySatでSL-3 R/Bをリアルタイム追跡

Download on the App Store